Tracking 33159 objects as of 7-Feb-2026
HD Live streaming from Space Station
objects crossing your sky now

PAGEOS 1 DEB

Track PAGEOS 1 DEB now!
10-day predictions


NORAD ID: 2511
Int'l Code: 1966-056D
Perigee: 4,235.7 km
Apogee: 4,260.4 km
Inclination: 87.0 °
Period: 181.5 minutes
Semi major axis: 10619 km
RCS: 1.1173 m2 (large)
Launch date: June 24, 1966
Source: United States (US)
Launch site: AIR FORCE WESTERN TEST RANGE (AFWTR)

Note: This is SATELLITE DEBRIS
Your satellite tracking list
Your tracking list is empty




NASA's NSSDC Master Catalog

Two Line Element Set (TLE):
1  2511U 66056D   26036.53796234 -.00000022  00000-0 -23279-1 0  9998
2  2511  86.9876 236.2812 0011662 310.6193  49.3599  7.93368803342148
Source of the keplerian elements: AFSPC